ASL81C LYBE-LQSA

Flight info

Callsign ASL81C
Flight time 0h 27m
Altitude 20000
Route VAL Y88 VEBAR
Aircraft A319/M-SDE3FGHIRWY/LB1

Departure

Time 2026-05-08 19:00
Airport Belgrade Nikola Tesla Airport (LYBE)

Arrival

Time 2026-05-08 19:27
Airport Sarajevo International Airport (LQSA)
Time Latitude Longitude Altitude Speed Heading
2026-05-08 18:37 44.82088 20.29282 307 ft 0 kts 212°
2026-05-08 18:53 44.82099 20.29291 307 ft 4 kts 206°
2026-05-08 18:54 44.82124 20.29303 306 ft 4 kts 187°
2026-05-08 18:54 44.82147 20.29306 306 ft 4 kts 164°
2026-05-08 18:54 44.82168 20.29286 307 ft 4 kts 122°
2026-05-08 18:54 44.82179 20.29257 307 ft 1 kts 122°
2026-05-08 18:55 44.82180 20.29257 307 ft 0 kts 122°
2026-05-08 18:57 44.82179 20.29257 307 ft 1 kts 122°
2026-05-08 18:57 44.82175 20.29266 307 ft 3 kts 122°
2026-05-08 18:57 44.82145 20.29334 307 ft 8 kts 122°
2026-05-08 18:57 44.82110 20.29411 310 ft 10 kts 122°
2026-05-08 18:58 44.82095 20.29511 307 ft 12 kts 61°
2026-05-08 18:58 44.82164 20.29586 308 ft 13 kts 33°
2026-05-08 18:58 44.82249 20.29663 310 ft 16 kts 32°
2026-05-08 18:58 44.82334 20.29773 309 ft 19 kts 81°
2026-05-08 18:59 44.82313 20.29858 307 ft 0 kts 121°
2026-05-08 18:59 44.82243 20.30014 307 ft 52 kts 122°
2026-05-08 18:59 44.81932 20.30716 308 ft 114 kts 122°
2026-05-08 18:59 44.81426 20.31854 470 ft 145 kts 121°
2026-05-08 19:00 44.80898 20.33041 1042 ft 142 kts 120°
2026-05-08 19:00 44.80374 20.34234 1542 ft 144 kts 119°
2026-05-08 19:00 44.79751 20.35348 2036 ft 148 kts 136°
2026-05-08 19:00 44.78856 20.36100 2519 ft 152 kts 159°
2026-05-08 19:01 44.77803 20.36347 2990 ft 157 kts 180°
2026-05-08 19:01 44.76668 20.35972 3217 ft 181 kts 206°
2026-05-08 19:01 44.75533 20.34976 3510 ft 204 kts 213°
2026-05-08 19:01 44.74260 20.33815 3846 ft 230 kts 213°
2026-05-08 19:02 44.72855 20.32539 4442 ft 248 kts 213°
2026-05-08 19:02 44.71335 20.31163 5052 ft 269 kts 212°
2026-05-08 19:02 44.69738 20.29723 5971 ft 275 kts 212°
2026-05-08 19:02 44.68118 20.28268 6963 ft 278 kts 212°
2026-05-08 19:03 44.66483 20.26799 7933 ft 281 kts 212°
2026-05-08 19:03 44.64822 20.25311 8857 ft 285 kts 212°
2026-05-08 19:03 44.63158 20.23773 9791 ft 289 kts 217°
2026-05-08 19:03 44.61552 20.22004 10404 ft 303 kts 211°
2026-05-08 19:04 44.59591 20.20663 10676 ft 326 kts 201°
2026-05-08 19:04 44.57421 20.19406 10964 ft 347 kts 205°
2026-05-08 19:04 44.55467 20.17365 11558 ft 357 kts 226°
2026-05-08 19:04 44.54052 20.14484 12273 ft 362 kts 238°
2026-05-08 19:05 44.52774 20.11428 13007 ft 366 kts 239°
2026-05-08 19:05 44.51493 20.08315 13731 ft 370 kts 239°
2026-05-08 19:05 44.50203 20.05166 14352 ft 375 kts 239°
2026-05-08 19:05 44.48900 20.01985 14986 ft 379 kts 239°
2026-05-08 19:06 44.47582 19.98777 15604 ft 383 kts 239°
2026-05-08 19:06 44.46241 19.95537 16234 ft 386 kts 239°
2026-05-08 19:06 44.44881 19.92269 16871 ft 390 kts 239°
2026-05-08 19:06 44.43509 19.88971 17501 ft 394 kts 239°
2026-05-08 19:07 44.42124 19.85642 18145 ft 398 kts 239°
2026-05-08 19:07 44.40723 19.82274 18713 ft 402 kts 239°
2026-05-08 19:07 44.39314 19.78888 19295 ft 405 kts 239°
2026-05-08 19:07 44.37892 19.75473 19810 ft 409 kts 239°
2026-05-08 19:08 44.36435 19.71985 19981 ft 423 kts 239°
2026-05-08 19:08 44.34922 19.68369 20030 ft 438 kts 239°
2026-05-08 19:08 44.33360 19.64645 20028 ft 451 kts 239°
2026-05-08 19:08 44.31762 19.60840 20033 ft 456 kts 239°
2026-05-08 19:09 44.30177 19.57062 20034 ft 457 kts 239°
2026-05-08 19:09 44.28544 19.53178 20033 ft 458 kts 239°
2026-05-08 19:09 44.26954 19.49402 20033 ft 458 kts 239°
2026-05-08 19:09 44.25340 19.45566 20035 ft 458 kts 239°
2026-05-08 19:10 44.23728 19.41736 20033 ft 458 kts 239°
2026-05-08 19:10 44.22089 19.37856 20038 ft 458 kts 239°
2026-05-08 19:10 44.20470 19.34036 20039 ft 458 kts 239°
2026-05-08 19:10 44.18849 19.30219 20042 ft 458 kts 239°
2026-05-08 19:11 44.17220 19.26395 20042 ft 458 kts 239°
2026-05-08 19:11 44.15598 19.22583 20041 ft 458 kts 239°
2026-05-08 19:11 44.14194 19.18675 20034 ft 458 kts 249°
2026-05-08 19:11 44.13416 19.14374 20035 ft 459 kts 262°
2026-05-08 19:12 44.13090 19.09961 20038 ft 459 kts 264°
2026-05-08 19:12 44.12778 19.05553 20034 ft 451 kts 264°
2026-05-08 19:12 44.12475 19.01323 20041 ft 428 kts 264°
2026-05-08 19:12 44.12184 18.97301 20042 ft 407 kts 264°
2026-05-08 19:13 44.11904 18.93472 20041 ft 390 kts 264°
2026-05-08 19:13 44.11632 18.89755 19742 ft 384 kts 264°
2026-05-08 19:13 44.11360 18.86070 19227 ft 382 kts 264°
2026-05-08 19:13 44.11090 18.82404 18739 ft 379 kts 264°
2026-05-08 19:14 44.10836 18.78928 18266 ft 376 kts 264°
2026-05-08 19:14 44.10573 18.75302 17733 ft 372 kts 264°
2026-05-08 19:14 44.10308 18.71739 17252 ft 368 kts 263°
2026-05-08 19:14 44.10041 18.68218 16782 ft 364 kts 263°
2026-05-08 19:15 44.09775 18.64745 16312 ft 360 kts 263°
2026-05-08 19:15 44.09510 18.61304 15844 ft 356 kts 263°
2026-05-08 19:15 44.09250 18.57900 15381 ft 352 kts 263°
2026-05-08 19:15 44.08993 18.54528 14924 ft 349 kts 263°
2026-05-08 19:16 44.08739 18.51183 14468 ft 347 kts 263°
2026-05-08 19:16 44.08485 18.47859 14009 ft 344 kts 263°
2026-05-08 19:16 44.08230 18.44559 13517 ft 342 kts 263°
2026-05-08 19:16 44.07977 18.41298 13064 ft 338 kts 263°
2026-05-08 19:17 44.07726 18.38072 12626 ft 334 kts 263°
2026-05-08 19:17 44.07478 18.34896 12412 ft 323 kts 263°
2026-05-08 19:17 44.07317 18.32864 12336 ft 315 kts 263°
2026-05-08 19:17 44.07083 18.29887 12203 ft 305 kts 263°
2026-05-08 19:18 44.06915 18.27004 12076 ft 295 kts 271°
2026-05-08 19:18 44.07294 18.24260 11952 ft 286 kts 291°
2026-05-08 19:18 44.08240 18.21890 11809 ft 277 kts 309°
2026-05-08 19:18 44.09490 18.19893 11363 ft 273 kts 307°
2026-05-08 19:19 44.10223 18.17492 10888 ft 270 kts 278°
2026-05-08 19:19 44.10133 18.14917 10406 ft 267 kts 253°
2026-05-08 19:19 44.09314 18.12628 9860 ft 264 kts 230°
2026-05-08 19:19 44.07940 18.10987 9259 ft 261 kts 208°
2026-05-08 19:20 44.06339 18.09800 8695 ft 260 kts 204°
2026-05-08 19:20 44.05230 18.09083 8325 ft 259 kts 202°
2026-05-08 19:20 44.03027 18.07844 7643 ft 257 kts 198°
2026-05-08 19:20 44.01332 18.07064 7180 ft 256 kts 194°
2026-05-08 19:21 43.99613 18.06442 6828 ft 254 kts 190°
2026-05-08 19:21 43.97878 18.05976 6459 ft 252 kts 187°
2026-05-08 19:21 43.96174 18.05666 6275 ft 241 kts 184°
2026-05-08 19:21 43.94543 18.05506 6154 ft 228 kts 180°
2026-05-08 19:22 43.93068 18.05913 6081 ft 208 kts 148°
2026-05-08 19:22 43.92094 18.07267 5798 ft 197 kts 116°
2026-05-08 19:22 43.91481 18.08933 5506 ft 192 kts 114°
2026-05-08 19:22 43.90879 18.10560 5234 ft 187 kts 114°
2026-05-08 19:23 43.90291 18.12144 4978 ft 183 kts 114°
2026-05-08 19:23 43.89714 18.13695 4722 ft 179 kts 114°
2026-05-08 19:23 43.89147 18.15221 4465 ft 177 kts 115°
2026-05-08 19:23 43.88592 18.16712 4227 ft 171 kts 115°
2026-05-08 19:24 43.88054 18.18159 3976 ft 168 kts 115°
2026-05-08 19:24 43.87523 18.19582 3740 ft 163 kts 115°
2026-05-08 19:24 43.87008 18.20966 3516 ft 165 kts 115°
2026-05-08 19:24 43.86467 18.22418 3286 ft 172 kts 116°
2026-05-08 19:25 43.85929 18.23859 3041 ft 161 kts 116°
2026-05-08 19:25 43.85437 18.25175 2808 ft 147 kts 116°
2026-05-08 19:25 43.84979 18.26401 2610 ft 141 kts 116°
2026-05-08 19:25 43.84529 18.27579 2369 ft 137 kts 116°
2026-05-08 19:26 43.84098 18.28743 2169 ft 135 kts 116°
2026-05-08 19:26 43.83670 18.29891 1932 ft 134 kts 116°
2026-05-08 19:26 43.83249 18.31028 1750 ft 133 kts 115°
2026-05-08 19:26 43.82839 18.32131 1676 ft 115 kts 117°
2026-05-08 19:27 43.82612 18.32741 1692 ft 30 kts 117°
2026-05-08 19:27 43.82522 18.32986 1692 ft 24 kts 117°
2026-05-08 19:27 43.82521 18.33212 1699 ft 24 kts 69°
2026-05-08 19:27 43.82532 18.33426 1702 ft 23 kts 116°
2026-05-08 19:28 43.82467 18.33602 1707 ft 16 kts 117°
2026-05-08 19:28 43.82482 18.33665 1705 ft 8 kts 28°
2026-05-08 19:28 43.82515 18.33691 1705 ft 1 kts 28°